Погода в Абаге

Россия / Республика Саха (Якутия)     61°02′42″N   132°16′45″E
темп.,
°C
ветер,
м/с
пор.,
м/с
влажн.,
%
обл.,
%
осадки,
мм/ч
давл.,
гПа
погр.,
м
1 марта, пн
пн100:00−27зюз2697100 0.0 1025230
03:00−28зюз2697100 0.1 1025182
06:00−29зюз2598100 0.0 1026113
09:00−28з3794100 0.1 1026430
12:00−25з3587100 0.1 1026930
15:00−24зсз3685100 0.1 10251052
18:00−26з2594100 0.1 1026189
21:00−28з2597100 0.1 1026141
2 марта, вт
вт200:00−29з239799 0.0 102677
03:00−32зюз129899 0.0 102619
06:00−34зюз129996 0.0 102719
09:00−32зюз129896 0.0 1027108
12:00−28з2491100 0.0 1026486
15:00−26зсз2388100 0.1 1025680
18:00−27зсз1197100 0.1 102520
21:00−29зсз1198100 0.1 102519
3 марта, ср
ср300:00−29зсз1198100 0.1 102419
03:00−30з1199100 0.1 102419
06:00−30з1198100 0.1 102319
09:00−29з119799 0.1 1022150
12:00−26з128999 0.1 1021522
15:00−25зсз128599 0.1 1019776
18:00−28ссз1296100 0.1 101919
21:00−30зсз1298100 0.1 101921
4 марта, чт
чт400:00−30з2498100 0.1 1018140
03:00−31з2598100 0.1 1018260
06:00−31з2697100 0.1 1018325
09:00−31зсз3693100 0.1 1018625
12:00−30зсз3588100 0.1 1019844
15:00−29зсз3685100 0.1 10191041
18:00−32з2693100 0.0 1020128
21:00−35з239799 0.1 102148
5 марта, пт
пт500:00−36з239898 0.0 102250
03:00−37зюз249893 0.0 102396
06:00−36зюз3896100 0.0 1024259
09:00−34зсз4893100 0.0 1024533
12:00−31зсз4890100 0.0 1024655
15:00−29зсз4889100 0.0 1024709
18:00−30зсз3993100 0.0 1024681
21:00−30зсз31093100 0.0 1025659